Location: Prairie Dale
(45.6972°N, 104.5033°W)
Time: 14:33:10
(UTC+00:00)

DX 1 - Pass Details

Date: 04 July 2022
Orbit: 616 x 630 km, 98.4° (Epoch: 18 August)

Event Time Altitude Azimuth Distance (km) Brightness Sun altitude
Rises 05:42:02 0° 357° (N) 2,931 ? -19.0°
Reaches altitude 10° 05:45:08 10° 333° (NNW) 2,016 ? -19.2°
Maximum altitude 05:47:28 14° 301° (WNW) 1,735 ? -19.3°
Drops below altitude 10° 05:49:48 10° 268° (W) 2,005 ? -19.5°
Sets 05:52:52 0° 244° (WSW) 2,904 ? -19.6°
